ELY191 LLBG-UACC

Flight info

Callsign ELY191
Flight time N/A
Altitude 38000
Route SUVAS L53 ANIDE DCT RIPLI DCT PEREN UN133 ATFIR DCT LOMOS DCT KENIN DCT KELEL/N0476F390 DCT LOGDA DCT VABER DCT LAUGA DCT IGORO/K0887F390 M864 IBROT/K0915F410 M864 INKEB L94 UNORO T788 NAMUD L994 DIDAL DIDAL1G
Aircraft B772/H-SDE2E3FGHIJ1J4J5LM1OP2RVWXYZ/LB1D1

Departure

Time N/A
Airport Ben Gurion International Airport (LLBG)

Arrival

Time 2026-05-01 14:16
Airport Nursultan Nazarbayev International Airport (UACC)
Time Latitude Longitude Altitude Speed Heading
2026-05-01 07:23 34.57151 29.42716 37993 ft 422 kts 307°
2026-05-01 07:24 34.62870 29.34600 37992 ft 421 kts 307°
2026-05-01 07:24 34.66677 29.29188 37994 ft 421 kts 307°
2026-05-01 07:25 34.70478 29.23775 38009 ft 421 kts 307°
2026-05-01 07:25 34.74277 29.18358 37996 ft 421 kts 307°
2026-05-01 07:26 34.78049 29.12969 37993 ft 420 kts 307°
2026-05-01 07:26 34.81829 29.07561 37996 ft 420 kts 307°
2026-05-01 07:27 34.85612 29.02141 37993 ft 420 kts 307°
2026-05-01 07:27 34.89391 28.96719 37994 ft 420 kts 307°
2026-05-01 07:28 34.93166 28.91293 37997 ft 420 kts 307°
2026-05-01 07:28 34.96936 28.85866 37999 ft 419 kts 307°
2026-05-01 07:29 35.00704 28.80433 37997 ft 419 kts 307°
2026-05-01 07:29 35.04460 28.75010 38019 ft 419 kts 307°
2026-05-01 07:30 35.08224 28.69565 38009 ft 420 kts 307°
2026-05-01 07:30 35.11986 28.64116 38008 ft 420 kts 307°
2026-05-01 07:31 35.15749 28.58656 37999 ft 420 kts 307°
2026-05-01 07:32 35.25113 28.45032 37995 ft 419 kts 307°
2026-05-01 07:33 35.30737 28.36824 37994 ft 419 kts 307°
2026-05-01 07:33 35.36349 28.28615 37996 ft 419 kts 306°
2026-05-01 07:34 35.41953 28.20398 38004 ft 419 kts 306°
2026-05-01 07:35 35.45687 28.14910 38002 ft 419 kts 306°
2026-05-01 07:35 35.49420 28.09416 37997 ft 419 kts 306°
2026-05-01 07:36 35.53148 28.03922 38005 ft 419 kts 306°
2026-05-01 07:36 35.56867 27.98430 37995 ft 418 kts 306°
2026-05-01 07:37 35.62411 27.90230 37999 ft 417 kts 306°
2026-05-01 07:37 35.66112 27.84744 37999 ft 417 kts 306°
2026-05-01 07:38 35.69807 27.79257 37999 ft 416 kts 306°
2026-05-01 07:39 35.74746 27.71911 38000 ft 416 kts 306°
2026-05-01 07:39 35.80260 27.63690 38006 ft 417 kts 306°
2026-05-01 07:40 35.83952 27.58175 38000 ft 417 kts 306°
2026-05-01 07:40 35.87643 27.52653 38004 ft 417 kts 306°
2026-05-01 07:41 35.91332 27.47125 38021 ft 417 kts 306°
2026-05-01 07:42 35.96862 27.38820 38011 ft 417 kts 306°
2026-05-01 07:42 36.00544 27.33279 38011 ft 417 kts 306°
2026-05-01 07:43 36.04222 27.27737 38000 ft 417 kts 306°
2026-05-01 07:43 36.09733 27.19414 38008 ft 417 kts 306°
2026-05-01 07:44 36.17069 27.08302 38007 ft 417 kts 306°
2026-05-01 07:45 36.20730 27.02744 38008 ft 416 kts 306°
2026-05-01 07:45 36.24384 26.97188 38016 ft 416 kts 306°
2026-05-01 07:46 36.28034 26.91628 38019 ft 416 kts 306°
2026-05-01 07:47 36.33500 26.83283 38019 ft 415 kts 305°
2026-05-01 07:47 36.37114 26.77757 38018 ft 415 kts 305°
2026-05-01 07:48 36.42564 26.69403 38025 ft 415 kts 305°
2026-05-01 07:48 36.46193 26.63829 38058 ft 415 kts 305°
2026-05-01 07:49 36.51641 26.55444 38036 ft 416 kts 305°
2026-05-01 07:50 36.55271 26.49845 38028 ft 416 kts 305°
2026-05-01 07:50 36.60716 26.41431 38031 ft 416 kts 305°
2026-05-01 07:51 36.64343 26.35815 38037 ft 416 kts 305°
2026-05-01 07:52 36.69778 26.27380 38041 ft 416 kts 305°
2026-05-01 07:52 36.73372 26.21791 38042 ft 416 kts 305°
2026-05-01 07:53 36.78791 26.13346 38043 ft 415 kts 304°
2026-05-01 07:53 36.82399 26.07711 38068 ft 416 kts 304°
2026-05-01 07:55 36.91434 25.93560 38046 ft 417 kts 304°
2026-05-01 07:56 37.00473 25.79342 38057 ft 418 kts 304°
2026-05-01 07:57 37.05891 25.70790 38058 ft 418 kts 304°
2026-05-01 07:58 37.13113 25.59357 38061 ft 418 kts 304°
2026-05-01 07:59 37.20329 25.47892 38053 ft 420 kts 304°
2026-05-01 08:00 37.33637 25.33704 38050 ft 444 kts 334°
2026-05-01 08:01 37.45498 25.29060 38103 ft 448 kts 335°
2026-05-01 08:02 37.54421 25.25527 38089 ft 448 kts 335°
2026-05-01 08:03 37.63321 25.21938 38089 ft 448 kts 334°
2026-05-01 08:03 37.72231 25.18329 38105 ft 449 kts 335°
2026-05-01 08:04 37.84154 25.13490 38111 ft 450 kts 335°
2026-05-01 08:05 37.93098 25.09851 38119 ft 450 kts 335°
2026-05-01 08:06 38.02042 25.06201 38122 ft 450 kts 335°
2026-05-01 08:07 38.13921 25.01340 38143 ft 450 kts 335°
2026-05-01 08:08 38.22873 24.97664 38129 ft 451 kts 335°
2026-05-01 08:09 38.34815 24.92748 38144 ft 451 kts 335°
2026-05-01 08:09 38.40787 24.90282 38149 ft 452 kts 335°
2026-05-01 08:10 38.52755 24.85328 38148 ft 452 kts 335°
2026-05-01 08:11 38.64736 24.80352 38158 ft 454 kts 335°
2026-05-01 08:12 38.73743 24.76599 38153 ft 454 kts 335°
2026-05-01 08:13 38.82759 24.72834 38164 ft 454 kts 335°
2026-05-01 08:13 38.91781 24.69054 38181 ft 455 kts 335°
2026-05-01 08:14 38.97798 24.66529 38174 ft 455 kts 335°
2026-05-01 08:14 39.03817 24.63998 38169 ft 455 kts 335°
2026-05-01 08:15 39.12846 24.60192 38187 ft 456 kts 335°
2026-05-01 08:16 39.18874 24.57645 38191 ft 456 kts 335°
2026-05-01 08:16 39.24905 24.55093 38191 ft 456 kts 335°
2026-05-01 08:17 39.30890 24.52556 38193 ft 456 kts 335°
2026-05-01 08:17 39.36921 24.49994 38206 ft 457 kts 335°
2026-05-01 08:18 39.42958 24.47425 38201 ft 457 kts 335°
2026-05-01 08:19 39.55044 24.42268 38239 ft 458 kts 335°
2026-05-01 08:19 39.61099 24.39677 38215 ft 459 kts 336°
2026-05-01 08:20 39.67162 24.37078 38219 ft 459 kts 336°
2026-05-01 08:20 39.73234 24.34471 38223 ft 460 kts 336°
2026-05-01 08:21 39.79307 24.31859 38234 ft 460 kts 336°
2026-05-01 08:21 39.85391 24.29236 38227 ft 461 kts 336°
2026-05-01 08:22 39.91476 24.26608 38229 ft 461 kts 336°
2026-05-01 08:22 39.97564 24.23975 38228 ft 461 kts 336°
2026-05-01 08:23 40.03654 24.21334 38238 ft 462 kts 336°
2026-05-01 08:23 40.09753 24.18685 38238 ft 462 kts 336°
2026-05-01 08:24 40.15858 24.16029 38236 ft 463 kts 336°
2026-05-01 08:24 40.21965 24.13367 38238 ft 463 kts 336°
2026-05-01 08:25 40.28076 24.10698 38236 ft 463 kts 336°
2026-05-01 08:25 40.33153 24.08476 38241 ft 463 kts 336°
2026-05-01 08:26 40.39265 24.05797 38232 ft 463 kts 336°
2026-05-01 08:26 40.45363 24.03119 38262 ft 462 kts 336°
2026-05-01 08:27 40.51468 24.00432 38241 ft 462 kts 336°
2026-05-01 08:27 40.57570 23.97743 38240 ft 463 kts 336°
2026-05-01 08:28 40.63853 23.95700 38245 ft 468 kts 344°
2026-05-01 08:28 40.70286 23.94224 38240 ft 470 kts 345°
2026-05-01 08:29 40.76725 23.92738 38239 ft 470 kts 345°
2026-05-01 08:29 40.83167 23.91211 38234 ft 471 kts 345°
2026-05-01 08:30 40.89618 23.89664 38244 ft 472 kts 345°
2026-05-01 08:30 40.96088 23.88108 38234 ft 473 kts 345°
2026-05-01 08:31 41.02570 23.86549 38229 ft 473 kts 345°
2026-05-01 08:31 41.09052 23.84988 38238 ft 473 kts 345°
2026-05-01 08:32 41.15534 23.83423 38238 ft 473 kts 345°
2026-05-01 08:32 41.21964 23.81867 38226 ft 472 kts 345°
2026-05-01 08:33 41.28426 23.80302 38238 ft 472 kts 345°
2026-05-01 08:33 41.34891 23.78763 38235 ft 472 kts 346°
2026-05-01 08:34 41.41358 23.77232 38231 ft 472 kts 346°
2026-05-01 08:34 41.47857 23.75848 38249 ft 473 kts 347°
2026-05-01 08:35 41.54368 23.74528 38248 ft 472 kts 347°
2026-05-01 08:35 41.60860 23.73195 38238 ft 472 kts 347°
2026-05-01 08:36 41.67349 23.71843 38257 ft 472 kts 347°
2026-05-01 08:36 41.73795 23.70491 38251 ft 472 kts 347°
2026-05-01 08:37 41.80290 23.69125 38263 ft 473 kts 347°
2026-05-01 08:37 41.86792 23.67756 38260 ft 473 kts 347°
2026-05-01 08:38 41.93288 23.66386 38280 ft 473 kts 347°
2026-05-01 08:38 41.99787 23.65012 38274 ft 473 kts 347°
2026-05-01 08:39 42.06282 23.63636 38269 ft 472 kts 347°
2026-05-01 08:39 42.12772 23.62259 38292 ft 472 kts 348°
2026-05-01 08:40 42.22512 23.60187 38271 ft 472 kts 348°
2026-05-01 08:40 42.29008 23.58800 38271 ft 473 kts 348°
2026-05-01 08:41 42.35510 23.57410 38276 ft 473 kts 348°
2026-05-01 08:41 42.42021 23.56015 38274 ft 474 kts 348°
2026-05-01 08:42 42.48533 23.54617 38256 ft 474 kts 348°
2026-05-01 08:42 42.55039 23.53217 38284 ft 474 kts 348°
2026-05-01 08:43 42.61536 23.51817 38280 ft 474 kts 348°
2026-05-01 08:43 42.68049 23.50410 38286 ft 473 kts 348°
2026-05-01 08:44 42.74511 23.49011 38291 ft 473 kts 348°
2026-05-01 08:44 42.81022 23.47598 38290 ft 473 kts 348°
2026-05-01 08:45 42.87526 23.46183 38305 ft 473 kts 348°
2026-05-01 08:45 42.94031 23.44766 38315 ft 474 kts 348°
2026-05-01 08:46 43.00540 23.43345 38326 ft 474 kts 348°
2026-05-01 08:46 43.07051 23.41920 38322 ft 474 kts 348°
2026-05-01 08:47 43.13564 23.40491 38333 ft 474 kts 348°
2026-05-01 08:47 43.20079 23.39058 38332 ft 474 kts 348°
2026-05-01 08:48 43.26595 23.37624 38352 ft 474 kts 348°
2026-05-01 08:48 43.33105 23.36188 38365 ft 474 kts 349°
2026-05-01 08:49 43.39622 23.34745 38358 ft 474 kts 349°
2026-05-01 08:49 43.46141 23.33300 38356 ft 474 kts 349°
2026-05-01 08:50 43.52657 23.31853 38360 ft 474 kts 349°
2026-05-01 08:50 43.59130 23.30411 38356 ft 474 kts 349°
2026-05-01 08:51 43.65643 23.28957 38345 ft 474 kts 349°
2026-05-01 08:51 43.72157 23.27500 38346 ft 474 kts 349°
2026-05-01 08:52 43.78667 23.26041 38354 ft 474 kts 349°
2026-05-01 08:52 43.85172 23.24558 38342 ft 473 kts 348°
2026-05-01 08:53 43.91637 23.22843 38345 ft 472 kts 347°
2026-05-01 08:53 43.98079 23.21053 38354 ft 472 kts 347°
2026-05-01 08:54 44.04524 23.19278 38343 ft 472 kts 348°
2026-05-01 08:54 44.10962 23.17525 38338 ft 471 kts 348°
2026-05-01 08:55 44.17401 23.15776 38348 ft 471 kts 348°
2026-05-01 08:55 44.23830 23.14027 38339 ft 471 kts 348°
2026-05-01 08:56 44.30260 23.12273 38334 ft 471 kts 348°
2026-05-01 08:56 44.36687 23.10515 38332 ft 471 kts 348°
2026-05-01 08:57 44.43109 23.08754 38330 ft 471 kts 348°
2026-05-01 08:57 44.49535 23.06987 38334 ft 470 kts 348°
2026-05-01 08:58 44.55958 23.05218 38333 ft 470 kts 348°
2026-05-01 08:58 44.62336 23.03457 38324 ft 470 kts 348°
2026-05-01 08:59 44.68758 23.01681 38325 ft 470 kts 348°
2026-05-01 08:59 44.75178 22.99901 38321 ft 470 kts 348°
2026-05-01 09:00 44.81599 22.98116 38330 ft 470 kts 348°
2026-05-01 09:00 44.88012 22.96330 38318 ft 470 kts 348°
2026-05-01 09:01 44.94418 22.94541 38314 ft 469 kts 348°
2026-05-01 09:01 45.00823 22.92750 38310 ft 469 kts 348°
2026-05-01 09:02 45.07219 22.90955 38307 ft 469 kts 349°
2026-05-01 09:02 45.13614 22.89157 38304 ft 469 kts 349°
2026-05-01 09:03 45.20011 22.87355 38296 ft 469 kts 349°
2026-05-01 09:03 45.26414 22.85547 38313 ft 469 kts 349°
2026-05-01 09:04 45.32821 22.83733 38303 ft 470 kts 349°
2026-05-01 09:04 45.39230 22.81915 38301 ft 470 kts 349°
2026-05-01 09:05 45.45642 22.80092 38302 ft 470 kts 349°
2026-05-01 09:05 45.52050 22.78265 38302 ft 470 kts 349°
2026-05-01 09:06 45.58451 22.76437 38298 ft 469 kts 349°
2026-05-01 09:06 45.64846 22.74606 38303 ft 468 kts 349°
2026-05-01 09:07 45.71126 22.72803 38307 ft 468 kts 350°
2026-05-01 09:07 45.77468 22.70978 38304 ft 467 kts 350°
2026-05-01 09:08 45.83838 22.69142 38305 ft 466 kts 350°
2026-05-01 09:08 45.90199 22.67304 38308 ft 466 kts 350°
2026-05-01 09:09 45.96550 22.65463 38313 ft 465 kts 350°
2026-05-01 09:09 46.02879 22.63625 38302 ft 463 kts 350°
2026-05-01 09:10 46.09186 22.61790 38321 ft 462 kts 350°
2026-05-01 09:10 46.15488 22.59951 38311 ft 462 kts 350°
2026-05-01 09:11 46.21746 22.58122 38297 ft 462 kts 350°
2026-05-01 09:11 46.28043 22.56277 38306 ft 461 kts 350°
2026-05-01 09:12 46.34329 22.54429 38295 ft 460 kts 351°
2026-05-01 09:12 46.40604 22.52581 38302 ft 460 kts 351°
2026-05-01 09:13 46.46868 22.50733 38304 ft 459 kts 351°
2026-05-01 09:13 46.53127 22.48881 38308 ft 459 kts 351°
2026-05-01 09:14 46.58365 22.47328 38309 ft 459 kts 351°
2026-05-01 09:14 46.64625 22.45468 38306 ft 459 kts 351°
2026-05-01 09:15 46.70879 22.43605 38306 ft 459 kts 351°
2026-05-01 09:15 46.77092 22.41750 38314 ft 459 kts 351°
2026-05-01 09:16 46.83357 22.39876 38315 ft 460 kts 351°
2026-05-01 09:17 46.92765 22.37052 38328 ft 461 kts 351°
2026-05-01 09:17 47.02194 22.34212 38333 ft 462 kts 351°
2026-05-01 09:18 47.11630 22.31358 38333 ft 460 kts 351°
2026-05-01 09:19 47.21007 22.28512 38338 ft 457 kts 351°
2026-05-01 09:20 47.30335 22.25672 38343 ft 455 kts 351°
2026-05-01 09:21 47.42720 22.21886 38349 ft 454 kts 351°
2026-05-01 09:21 47.51999 22.19037 38354 ft 454 kts 352°
2026-05-01 09:22 47.64363 22.15224 38355 ft 454 kts 352°
2026-05-01 09:23 47.73641 22.12351 38356 ft 454 kts 352°
2026-05-01 09:24 47.82917 22.09467 38360 ft 454 kts 352°
2026-05-01 09:25 47.95215 22.05628 38354 ft 451 kts 352°
2026-05-01 09:26 48.04421 22.02743 38364 ft 450 kts 352°
2026-05-01 09:26 48.13598 21.99856 38361 ft 448 kts 352°
2026-05-01 09:27 48.22746 21.96967 38360 ft 447 kts 352°
2026-05-01 09:28 48.28838 21.95039 38343 ft 448 kts 352°
2026-05-01 09:28 48.34769 21.92222 38355 ft 455 kts 336°
2026-05-01 09:29 48.42013 21.82732 38361 ft 470 kts 316°
2026-05-01 09:30 48.48248 21.71259 38359 ft 472 kts 315°
2026-05-01 09:30 48.54544 21.59814 38356 ft 473 kts 316°
2026-05-01 09:31 48.58764 21.52196 38354 ft 473 kts 316°
2026-05-01 09:32 48.65089 21.40744 38344 ft 473 kts 316°
2026-05-01 09:32 48.71378 21.29295 38342 ft 470 kts 316°
2026-05-01 09:33 48.75542 21.21692 38343 ft 469 kts 316°
2026-05-01 09:34 48.81784 21.10250 38351 ft 469 kts 316°
2026-05-01 09:34 48.88017 20.98778 38334 ft 469 kts 316°
2026-05-01 09:35 48.94212 20.87324 38342 ft 470 kts 316°
2026-05-01 09:36 48.98353 20.79640 38327 ft 470 kts 316°
2026-05-01 09:36 49.02484 20.71950 38336 ft 470 kts 316°
2026-05-01 09:37 49.06623 20.64224 38331 ft 469 kts 316°
2026-05-01 09:37 49.12799 20.52657 38341 ft 469 kts 315°
2026-05-01 09:38 49.18967 20.41050 38347 ft 469 kts 315°
2026-05-01 09:39 49.25126 20.29413 38333 ft 469 kts 315°
2026-05-01 09:39 49.29469 20.22137 38335 ft 452 kts 332°
2026-05-01 09:40 49.32223 20.20033 38346 ft 438 kts 348°
2026-05-01 09:40 49.38181 20.18970 38472 ft 428 kts 10°
2026-05-01 09:41 49.44071 20.20482 38716 ft 430 kts 13°
2026-05-01 09:41 49.49924 20.22098 39096 ft 431 kts 12°
2026-05-01 09:41 49.52877 20.22892 39226 ft 431 kts 12°
2026-05-01 09:42 49.58816 20.24448 39320 ft 434 kts 12°
2026-05-01 09:43 49.70718 20.27502 39347 ft 433 kts 12°
2026-05-01 09:43 49.76667 20.29029 39345 ft 433 kts 12°
2026-05-01 09:44 49.85579 20.31328 39347 ft 433 kts 12°
2026-05-01 09:45 49.91523 20.32866 39354 ft 433 kts 12°
2026-05-01 09:45 50.00442 20.35182 39351 ft 433 kts 12°
2026-05-01 09:46 50.06384 20.36730 39351 ft 433 kts 12°
2026-05-01 09:46 50.12325 20.38281 39349 ft 433 kts 12°
2026-05-01 09:47 50.18269 20.39837 39353 ft 433 kts 12°
2026-05-01 09:47 50.24210 20.41396 39341 ft 433 kts 12°
2026-05-01 09:48 50.30151 20.42959 39345 ft 433 kts 12°
2026-05-01 09:48 50.36086 20.44525 39343 ft 432 kts 12°
2026-05-01 09:49 50.42020 20.46094 39345 ft 432 kts 12°
2026-05-01 09:49 50.47950 20.47666 39346 ft 432 kts 12°
2026-05-01 09:50 50.53880 20.49242 39346 ft 432 kts 12°
2026-05-01 09:50 50.59808 20.50822 39342 ft 432 kts 12°
2026-05-01 09:51 50.65737 20.52406 39339 ft 432 kts 12°
2026-05-01 09:51 50.71616 20.53980 39339 ft 431 kts 12°
2026-05-01 09:52 50.77572 20.55580 39309 ft 431 kts 12°
2026-05-01 09:52 50.83443 20.57160 39327 ft 431 kts 12°
2026-05-01 09:53 50.89357 20.58756 39334 ft 431 kts 12°
2026-05-01 09:53 50.95275 20.60358 39335 ft 431 kts 12°
2026-05-01 09:54 51.01192 20.61964 39340 ft 431 kts 12°
2026-05-01 09:54 51.07107 20.63572 39337 ft 431 kts 12°
2026-05-01 09:55 51.13025 20.65187 39334 ft 431 kts 12°
2026-05-01 09:55 51.18939 20.66804 39334 ft 431 kts 12°
2026-05-01 09:56 51.24842 20.68488 39333 ft 430 kts 15°
2026-05-01 09:56 51.30503 20.71456 39333 ft 428 kts 24°
2026-05-01 09:57 51.35816 20.75683 39327 ft 427 kts 29°
2026-05-01 09:57 51.41020 20.80252 39327 ft 427 kts 29°
2026-05-01 09:58 51.46188 20.84800 39328 ft 427 kts 29°
2026-05-01 09:58 51.51395 20.89364 39327 ft 427 kts 29°
2026-05-01 09:59 51.56607 20.93926 39329 ft 427 kts 29°
2026-05-01 09:59 51.61821 20.98498 39330 ft 427 kts 29°
2026-05-01 10:00 51.67034 21.03080 39334 ft 427 kts 29°
2026-05-01 10:00 51.72246 21.07673 39335 ft 427 kts 29°
2026-05-01 10:01 51.76573 21.11497 39336 ft 427 kts 29°
2026-05-01 10:01 51.81781 21.16110 39334 ft 427 kts 29°
2026-05-01 10:02 51.86989 21.20736 39334 ft 427 kts 29°
2026-05-01 10:02 51.92191 21.25368 39334 ft 427 kts 29°
2026-05-01 10:03 51.97395 21.30015 39334 ft 427 kts 29°
2026-05-01 10:03 52.02597 21.34672 39331 ft 427 kts 29°
2026-05-01 10:04 52.07792 21.39335 39325 ft 427 kts 29°
2026-05-01 10:04 52.12950 21.43979 39327 ft 427 kts 29°
2026-05-01 10:05 52.18144 21.48666 39326 ft 427 kts 29°
2026-05-01 10:05 52.23333 21.53362 39326 ft 426 kts 29°
2026-05-01 10:06 52.28495 21.58046 39327 ft 426 kts 29°
2026-05-01 10:06 52.33682 21.62765 39326 ft 426 kts 29°
2026-05-01 10:07 52.38862 21.67490 39328 ft 426 kts 29°
2026-05-01 10:07 52.44046 21.72233 39329 ft 426 kts 29°
2026-05-01 10:08 52.51782 21.79333 39327 ft 426 kts 29°
2026-05-01 10:09 52.56956 21.84099 39329 ft 426 kts 29°
2026-05-01 10:09 52.62130 21.88877 39328 ft 426 kts 29°
2026-05-01 10:10 52.67299 21.93664 39326 ft 426 kts 29°
2026-05-01 10:10 52.75053 22.00870 39327 ft 426 kts 29°
2026-05-01 10:11 52.80222 22.05689 39326 ft 427 kts 29°
2026-05-01 10:11 52.85389 22.10520 39326 ft 427 kts 29°
2026-05-01 10:12 52.90557 22.15365 39326 ft 427 kts 30°
2026-05-01 10:13 52.98301 22.22651 39330 ft 427 kts 29°
2026-05-01 10:13 53.03467 22.27528 39330 ft 427 kts 29°
2026-05-01 10:14 53.11208 22.34863 39322 ft 427 kts 30°
2026-05-01 10:14 53.16333 22.39735 39317 ft 427 kts 29°
2026-05-01 10:15 53.21494 22.44655 39321 ft 427 kts 29°
2026-05-01 10:15 53.26648 22.49583 39323 ft 427 kts 29°
2026-05-01 10:16 53.31807 22.54528 39320 ft 427 kts 30°
2026-05-01 10:17 53.39538 22.61967 39325 ft 427 kts 29°
2026-05-01 10:17 53.47272 22.69439 39321 ft 428 kts 29°
2026-05-01 10:18 53.55002 22.76939 39323 ft 428 kts 30°
2026-05-01 10:19 53.60149 22.81952 39324 ft 428 kts 29°
2026-05-01 10:19 53.65295 22.86977 39319 ft 428 kts 29°
2026-05-01 10:20 53.73010 22.94537 39321 ft 427 kts 29°
2026-05-01 10:20 53.78147 22.99589 39321 ft 427 kts 30°
2026-05-01 10:21 53.85848 23.07191 39320 ft 427 kts 30°
2026-05-01 10:22 53.93509 23.14786 39318 ft 427 kts 30°
2026-05-01 10:23 54.01200 23.22444 39322 ft 427 kts 30°
2026-05-01 10:23 54.08895 23.30138 39322 ft 427 kts 30°
2026-05-01 10:24 54.19104 23.40499 39326 ft 427 kts 33°
2026-05-01 10:25 54.28376 23.53268 39330 ft 428 kts 38°
2026-05-01 10:26 54.32965 23.59783 39319 ft 428 kts 38°
2026-05-01 10:27 54.41366 23.71706 39322 ft 428 kts 38°
2026-05-01 10:28 54.48977 23.82554 39318 ft 428 kts 38°
2026-05-01 10:28 54.55841 23.92383 39314 ft 428 kts 38°
2026-05-01 10:29 54.62703 24.02254 39315 ft 428 kts 38°
2026-05-01 10:30 54.71843 24.15474 39313 ft 429 kts 38°
2026-05-01 10:31 54.80985 24.28777 39313 ft 430 kts 38°
2026-05-01 10:32 54.87846 24.38813 39310 ft 430 kts 38°
2026-05-01 10:33 54.96974 24.52240 39303 ft 431 kts 38°
2026-05-01 10:34 55.03830 24.62377 39293 ft 431 kts 38°
2026-05-01 10:34 55.08395 24.69155 39294 ft 431 kts 38°
2026-05-01 10:35 55.15241 24.79359 39285 ft 431 kts 38°
2026-05-01 10:35 55.19804 24.86186 39281 ft 432 kts 38°
2026-05-01 10:36 55.26648 24.96465 39291 ft 432 kts 38°
2026-05-01 10:37 55.31192 25.03317 39289 ft 432 kts 38°
2026-05-01 10:37 55.37992 25.13611 39296 ft 432 kts 38°
2026-05-01 10:38 55.42543 25.20527 39293 ft 433 kts 38°
2026-05-01 10:38 55.47095 25.27469 39289 ft 432 kts 38°
2026-05-01 10:39 55.51629 25.34404 39280 ft 431 kts 38°
2026-05-01 10:39 55.56152 25.41345 39291 ft 431 kts 38°
2026-05-01 10:40 55.60673 25.48302 39280 ft 431 kts 38°
2026-05-01 10:40 55.65190 25.55278 39280 ft 431 kts 38°
2026-05-01 10:41 55.69704 25.62270 39281 ft 431 kts 38°
2026-05-01 10:42 55.76471 25.72795 39283 ft 431 kts 38°
2026-05-01 10:42 55.80982 25.79839 39278 ft 432 kts 38°
2026-05-01 10:43 55.85494 25.86907 39281 ft 432 kts 38°
2026-05-01 10:43 55.90006 25.93998 39278 ft 433 kts 38°
2026-05-01 10:44 55.94245 26.01528 39276 ft 437 kts 49°
2026-05-01 10:44 55.97425 26.10942 39278 ft 445 kts 62°
2026-05-01 10:45 55.99523 26.21322 39278 ft 448 kts 66°
2026-05-01 10:45 56.01497 26.31897 39279 ft 449 kts 66°
2026-05-01 10:46 56.03493 26.42481 39278 ft 449 kts 66°
2026-05-01 10:46 56.05507 26.53056 39285 ft 449 kts 66°
2026-05-01 10:47 56.07514 26.63603 39281 ft 447 kts 66°
2026-05-01 10:47 56.09506 26.74119 39283 ft 445 kts 66°
2026-05-01 10:48 56.11483 26.84613 39281 ft 444 kts 66°
2026-05-01 10:48 56.13453 26.95129 39281 ft 446 kts 66°
2026-05-01 10:49 56.15418 27.05684 39278 ft 447 kts 66°
2026-05-01 10:49 56.17050 27.14491 39271 ft 448 kts 66°
2026-05-01 10:50 56.19006 27.25108 39275 ft 448 kts 66°
2026-05-01 10:50 56.20954 27.35747 39269 ft 448 kts 66°
2026-05-01 10:51 56.22891 27.46381 39263 ft 447 kts 66°
2026-05-01 10:51 56.24814 27.56996 39267 ft 447 kts 66°
2026-05-01 10:52 56.26727 27.67618 39262 ft 446 kts 67°
2026-05-01 10:52 56.28630 27.78246 39261 ft 446 kts 67°
2026-05-01 10:53 56.30524 27.88887 39257 ft 446 kts 67°
2026-05-01 10:53 56.32411 27.99543 39251 ft 447 kts 67°
2026-05-01 10:54 56.34292 28.10226 39273 ft 447 kts 68°
2026-05-01 10:54 56.35352 28.21384 39262 ft 458 kts 82°
2026-05-01 10:55 56.34957 28.32882 39246 ft 468 kts 93°
2026-05-01 10:55 56.33850 28.44443 39245 ft 468 kts 94°
2026-05-01 10:56 56.32731 28.56008 39234 ft 468 kts 93°
2026-05-01 10:56 56.31650 28.67571 39235 ft 468 kts 93°
2026-05-01 10:57 56.30574 28.79125 39241 ft 468 kts 93°
2026-05-01 10:57 56.29487 28.90666 39237 ft 467 kts 93°
2026-05-01 10:58 56.28392 29.02174 39230 ft 466 kts 93°
2026-05-01 10:58 56.27291 29.13663 39221 ft 466 kts 93°
2026-05-01 10:59 56.26198 29.25144 39229 ft 465 kts 93°
2026-05-01 10:59 56.25098 29.36615 39224 ft 466 kts 93°
2026-05-01 11:00 56.23985 29.48089 39221 ft 466 kts 93°
2026-05-01 11:00 56.22859 29.59568 39221 ft 466 kts 94°
2026-05-01 11:01 56.21722 29.71035 39224 ft 466 kts 94°
2026-05-01 11:01 56.20574 29.82512 39221 ft 467 kts 94°
2026-05-01 11:02 56.19414 29.94001 39224 ft 467 kts 94°
2026-05-01 11:02 56.18251 30.05395 39216 ft 466 kts 94°
2026-05-01 11:03 56.17076 30.16826 39215 ft 466 kts 94°
2026-05-01 11:03 56.15889 30.28241 39217 ft 465 kts 94°
2026-05-01 11:04 56.14690 30.39647 39219 ft 465 kts 94°
2026-05-01 11:04 56.13485 30.51054 39218 ft 466 kts 95°
2026-05-01 11:05 56.12259 30.62466 39218 ft 466 kts 95°
2026-05-01 11:05 56.11009 30.73862 39219 ft 466 kts 95°
2026-05-01 11:06 56.09751 30.85254 39227 ft 466 kts 95°
2026-05-01 11:06 56.08488 30.96632 39221 ft 466 kts 95°
2026-05-01 11:07 56.06608 31.13685 39239 ft 467 kts 95°
2026-05-01 11:07 56.05360 31.25080 39231 ft 467 kts 95°
2026-05-01 11:08 56.04098 31.36474 39231 ft 467 kts 95°
2026-05-01 11:09 56.02182 31.53547 39236 ft 467 kts 95°
2026-05-01 11:09 56.00893 31.64915 39255 ft 467 kts 96°
2026-05-01 11:10 55.98935 31.82003 39236 ft 468 kts 96°
2026-05-01 11:10 55.97614 31.93402 39239 ft 469 kts 96°
2026-05-01 11:11 55.96281 32.04726 39243 ft 470 kts 96°
2026-05-01 11:11 55.94925 32.16132 39243 ft 470 kts 96°
2026-05-01 11:12 55.93559 32.27550 39244 ft 471 kts 97°
2026-05-01 11:12 55.92180 32.38984 39238 ft 472 kts 97°
2026-05-01 11:13 55.90791 32.50413 39235 ft 472 kts 97°
2026-05-01 11:13 55.89390 32.61837 39235 ft 472 kts 97°
2026-05-01 11:14 55.87979 32.73260 39232 ft 472 kts 97°
2026-05-01 11:14 55.86559 32.84676 39244 ft 473 kts 97°
2026-05-01 11:15 55.85612 32.96171 39234 ft 467 kts 88°
2026-05-01 11:15 55.85754 33.07629 39237 ft 462 kts 82°
2026-05-01 11:16 55.86153 33.19038 39232 ft 462 kts 82°
2026-05-01 11:16 55.86525 33.30478 39239 ft 463 kts 82°
2026-05-01 11:17 55.86865 33.41939 39232 ft 464 kts 82°
2026-05-01 11:17 55.87189 33.53424 39229 ft 465 kts 83°
2026-05-01 11:18 55.87502 33.64941 39226 ft 466 kts 83°
2026-05-01 11:18 55.87807 33.76483 39225 ft 467 kts 83°
2026-05-01 11:19 55.88099 33.87962 39221 ft 467 kts 83°
2026-05-01 11:19 55.88383 33.99527 39222 ft 467 kts 83°
2026-05-01 11:20 55.88656 34.11085 39221 ft 467 kts 83°
2026-05-01 11:20 55.88919 34.22660 39229 ft 468 kts 84°
2026-05-01 11:21 55.89173 34.34262 39221 ft 469 kts 84°
2026-05-01 11:21 55.89407 34.45879 39218 ft 469 kts 84°
2026-05-01 11:22 55.89623 34.57505 39223 ft 470 kts 84°
2026-05-01 11:22 55.89831 34.69136 39223 ft 470 kts 84°
2026-05-01 11:23 55.90030 34.80773 39220 ft 470 kts 84°
2026-05-01 11:23 55.90220 34.92428 39230 ft 471 kts 85°
2026-05-01 11:24 55.90398 35.04096 39217 ft 471 kts 85°
2026-05-01 11:25 55.90656 35.21619 39212 ft 471 kts 85°
2026-05-01 11:25 55.90895 35.39144 39217 ft 472 kts 85°
2026-05-01 11:26 55.91110 35.56680 39212 ft 472 kts 85°
2026-05-01 11:27 55.91238 35.68375 39208 ft 472 kts 85°
2026-05-01 11:27 55.91357 35.79994 39207 ft 472 kts 85°
2026-05-01 11:28 55.91656 35.91653 39201 ft 470 kts 82°
2026-05-01 11:28 55.92193 36.03263 39203 ft 469 kts 82°
2026-05-01 11:29 55.92987 36.20679 39195 ft 470 kts 82°
2026-05-01 11:30 55.93725 36.38130 39201 ft 472 kts 82°
2026-05-01 11:30 55.94201 36.49810 39199 ft 472 kts 83°
2026-05-01 11:31 55.94666 36.61500 39190 ft 473 kts 83°
2026-05-01 11:31 55.95121 36.73205 39194 ft 473 kts 83°
2026-05-01 11:32 55.95567 36.84915 39188 ft 473 kts 83°
2026-05-01 11:32 55.96000 36.96621 39186 ft 473 kts 83°
2026-05-01 11:33 55.96423 37.08337 39193 ft 473 kts 83°
2026-05-01 11:33 55.96836 37.20064 39187 ft 474 kts 83°
2026-05-01 11:34 55.97238 37.31809 39186 ft 474 kts 83°
2026-05-01 11:34 55.97594 37.43568 39185 ft 475 kts 84°
2026-05-01 11:35 55.97927 37.55336 39185 ft 474 kts 84°
2026-05-01 11:35 55.98258 37.67105 39187 ft 475 kts 84°
2026-05-01 11:36 55.98525 37.76893 39206 ft 475 kts 84°
2026-05-01 11:36 55.98913 37.90604 39196 ft 476 kts 84°
2026-05-01 11:37 55.99247 38.02435 39187 ft 477 kts 84°
2026-05-01 11:37 55.99516 38.12362 39197 ft 478 kts 84°
2026-05-01 11:38 55.99825 38.24182 39197 ft 478 kts 84°
2026-05-01 11:38 56.00123 38.36077 39196 ft 478 kts 84°
2026-05-01 11:39 56.00409 38.47943 39203 ft 478 kts 84°
2026-05-01 11:39 56.00684 38.59808 39211 ft 478 kts 85°
2026-05-01 11:40 56.00946 38.71621 39215 ft 479 kts 85°
2026-05-01 11:40 56.01199 38.83532 39206 ft 480 kts 85°
2026-05-01 11:41 56.01440 38.95441 39203 ft 480 kts 85°
2026-05-01 11:41 56.01670 39.07347 39202 ft 479 kts 85°
2026-05-01 11:42 56.01889 39.19254 39199 ft 479 kts 85°
2026-05-01 11:42 56.02096 39.31161 39207 ft 479 kts 86°
2026-05-01 11:43 56.02292 39.43083 39203 ft 480 kts 86°
2026-05-01 11:43 56.02478 39.55033 39200 ft 482 kts 86°
2026-05-01 11:44 56.02778 39.73022 39204 ft 483 kts 85°
2026-05-01 11:44 56.03004 39.85028 39199 ft 483 kts 86°
2026-05-01 11:45 56.03173 39.97051 39204 ft 484 kts 86°
2026-05-01 11:45 56.03325 40.09079 39209 ft 484 kts 87°
2026-05-01 11:46 56.03472 40.21125 39205 ft 485 kts 87°
2026-05-01 11:46 56.03610 40.33181 39205 ft 485 kts 87°
2026-05-01 11:47 56.03737 40.45261 39199 ft 486 kts 87°
2026-05-01 11:47 56.03852 40.57350 39202 ft 486 kts 87°
2026-05-01 11:48 56.03958 40.69440 39198 ft 486 kts 87°
2026-05-01 11:48 56.04048 40.81540 39207 ft 486 kts 88°
2026-05-01 11:49 56.04120 40.93643 39196 ft 487 kts 88°
2026-05-01 11:49 56.04181 41.05761 39197 ft 488 kts 88°
2026-05-01 11:50 56.04232 41.17888 39197 ft 488 kts 88°
2026-05-01 11:50 56.04272 41.30026 39192 ft 488 kts 88°
2026-05-01 11:51 56.04300 41.42165 39194 ft 488 kts 88°
2026-05-01 11:51 56.04315 41.54231 39194 ft 488 kts 89°
2026-05-01 11:52 56.04319 41.66387 39186 ft 489 kts 89°
2026-05-01 11:52 56.04311 41.78562 39185 ft 490 kts 89°
2026-05-01 11:53 56.04291 41.90748 39184 ft 490 kts 89°
2026-05-01 11:53 56.04259 42.02946 39183 ft 491 kts 89°
2026-05-01 11:54 56.04215 42.15151 39181 ft 491 kts 89°
2026-05-01 11:54 56.04159 42.27359 39183 ft 491 kts 89°
2026-05-01 11:55 56.04091 42.39563 39184 ft 491 kts 90°
2026-05-01 11:55 56.04013 42.51806 39182 ft 492 kts 90°
2026-05-01 11:56 56.03896 42.64073 39335 ft 495 kts 90°
2026-05-01 11:56 56.03820 42.70221 39532 ft 494 kts 91°
2026-05-01 11:56 56.03741 42.76355 39776 ft 493 kts 91°
2026-05-01 11:57 56.03661 42.82478 39986 ft 492 kts 91°
2026-05-01 11:57 56.03580 42.88605 40180 ft 492 kts 91°
2026-05-01 11:57 56.03497 42.94720 40339 ft 493 kts 91°
2026-05-01 11:57 56.03412 43.00857 40496 ft 494 kts 91°
2026-05-01 11:58 56.03323 43.06970 40687 ft 494 kts 91°
2026-05-01 11:58 56.03232 43.13109 40848 ft 494 kts 91°
2026-05-01 11:58 56.03041 43.25392 41086 ft 495 kts 91°
2026-05-01 11:59 56.02954 43.31547 41133 ft 496 kts 89°
2026-05-01 11:59 56.03480 43.43821 41167 ft 495 kts 82°
2026-05-01 12:00 56.04802 43.62106 41162 ft 496 kts 82°
2026-05-01 12:01 56.06044 43.80509 41162 ft 497 kts 83°
2026-05-01 12:01 56.06837 43.92785 41158 ft 496 kts 83°
2026-05-01 12:02 56.07618 44.05060 41156 ft 496 kts 83°
2026-05-01 12:02 56.08388 44.17333 41153 ft 496 kts 83°
2026-05-01 12:03 56.09146 44.29595 41151 ft 495 kts 83°
2026-05-01 12:03 56.09892 44.41857 41156 ft 495 kts 83°
2026-05-01 12:04 56.10626 44.54122 41149 ft 495 kts 84°
2026-05-01 12:04 56.11280 44.66398 41142 ft 495 kts 88°
2026-05-01 12:05 56.11120 44.78716 41146 ft 495 kts 92°
2026-05-01 12:05 56.10676 44.97127 41143 ft 496 kts 92°
2026-05-01 12:06 56.10413 45.09497 41137 ft 497 kts 92°
2026-05-01 12:06 56.10117 45.21804 41135 ft 498 kts 92°
2026-05-01 12:07 56.09813 45.34052 41132 ft 499 kts 92°
2026-05-01 12:07 56.09495 45.46458 41132 ft 499 kts 92°
2026-05-01 12:08 56.09165 45.58884 41126 ft 499 kts 93°
2026-05-01 12:08 56.08823 45.71309 41125 ft 500 kts 93°
2026-05-01 12:09 56.08467 45.83742 41125 ft 500 kts 93°
2026-05-01 12:09 56.08099 45.96177 41121 ft 500 kts 93°
2026-05-01 12:10 56.07524 46.14824 41123 ft 500 kts 93°
2026-05-01 12:11 56.06922 46.33460 41117 ft 500 kts 94°
2026-05-01 12:11 56.06460 46.45861 41111 ft 499 kts 97°
2026-05-01 12:12 56.05027 46.57985 41114 ft 498 kts 108°
2026-05-01 12:12 56.02590 46.69560 41121 ft 497 kts 112°
2026-05-01 12:13 56.00053 46.81080 41110 ft 498 kts 112°
2026-05-01 12:13 55.97552 46.92620 41098 ft 498 kts 111°
2026-05-01 12:14 55.95077 47.04089 41097 ft 499 kts 112°
2026-05-01 12:14 55.92569 47.15636 41088 ft 499 kts 112°
2026-05-01 12:15 55.90046 47.27166 41086 ft 500 kts 112°
2026-05-01 12:15 55.87512 47.38692 41088 ft 500 kts 112°
2026-05-01 12:16 55.84968 47.50205 41087 ft 499 kts 112°
2026-05-01 12:16 55.82415 47.61705 41091 ft 500 kts 112°
2026-05-01 12:17 55.79855 47.73173 41095 ft 500 kts 112°
2026-05-01 12:17 55.77286 47.84609 41094 ft 500 kts 113°
2026-05-01 12:18 55.74678 47.96061 41089 ft 500 kts 113°
2026-05-01 12:18 55.72058 48.07499 41083 ft 500 kts 113°
2026-05-01 12:19 55.69447 48.18855 41093 ft 501 kts 113°
2026-05-01 12:19 55.66806 48.30285 41098 ft 502 kts 113°
2026-05-01 12:20 55.64149 48.41733 41080 ft 503 kts 114°
2026-05-01 12:20 55.61482 48.53157 41080 ft 502 kts 114°
2026-05-01 12:21 55.58816 48.64563 41076 ft 502 kts 114°
2026-05-01 12:21 55.56145 48.75950 41079 ft 501 kts 114°
2026-05-01 12:22 55.53916 48.85404 41083 ft 502 kts 114°
2026-05-01 12:22 55.50765 48.98694 41079 ft 502 kts 114°
2026-05-01 12:23 55.48519 49.08123 41082 ft 502 kts 114°
2026-05-01 12:23 55.45806 49.19455 41078 ft 502 kts 114°
2026-05-01 12:24 55.43083 49.30775 41082 ft 502 kts 115°
2026-05-01 12:24 55.40343 49.42104 41082 ft 503 kts 115°
2026-05-01 12:25 55.36225 49.59066 41068 ft 503 kts 115°
2026-05-01 12:26 55.33465 49.70374 41078 ft 503 kts 115°
2026-05-01 12:26 55.29305 49.87302 41072 ft 503 kts 115°
2026-05-01 12:27 55.25094 50.04155 41071 ft 503 kts 115°
2026-05-01 12:28 55.20860 50.20967 41048 ft 503 kts 116°
2026-05-01 12:29 55.16607 50.37750 41057 ft 503 kts 116°
2026-05-01 12:29 55.12348 50.54428 41061 ft 503 kts 116°
2026-05-01 12:30 55.08048 50.71150 41038 ft 503 kts 116°
2026-05-01 12:31 55.05173 50.82274 41043 ft 503 kts 115°
2026-05-01 12:31 55.02730 50.93716 41052 ft 504 kts 111°
2026-05-01 12:32 55.00467 51.05287 41042 ft 504 kts 110°
2026-05-01 12:32 54.97023 51.22615 41036 ft 505 kts 111°
2026-05-01 12:33 54.94691 51.34136 41022 ft 505 kts 111°
2026-05-01 12:33 54.92349 51.45629 41026 ft 505 kts 111°
2026-05-01 12:34 54.90006 51.57069 41019 ft 505 kts 111°
2026-05-01 12:34 54.87641 51.68555 41017 ft 505 kts 112°
2026-05-01 12:35 54.85267 51.80026 41012 ft 505 kts 112°
2026-05-01 12:35 54.82879 51.91493 41019 ft 505 kts 112°
2026-05-01 12:36 54.80479 52.02954 41008 ft 506 kts 112°
2026-05-01 12:36 54.78070 52.14401 40995 ft 506 kts 112°
2026-05-01 12:37 54.75648 52.25834 41007 ft 506 kts 112°
2026-05-01 12:37 54.73214 52.37258 40987 ft 506 kts 112°
2026-05-01 12:38 54.70773 52.48663 40994 ft 506 kts 112°
2026-05-01 12:38 54.68322 52.60057 40991 ft 505 kts 113°
2026-05-01 12:39 54.65880 52.71356 40993 ft 506 kts 113°
2026-05-01 12:39 54.63508 52.82775 40980 ft 507 kts 108°
2026-05-01 12:40 54.61692 52.94545 40975 ft 508 kts 107°
2026-05-01 12:40 54.59912 53.06339 40975 ft 508 kts 107°
2026-05-01 12:41 54.58086 53.18102 40973 ft 508 kts 108°
2026-05-01 12:41 54.56231 53.29855 40972 ft 508 kts 108°
2026-05-01 12:42 54.54367 53.41605 40971 ft 508 kts 108°
2026-05-01 12:42 54.52494 53.53341 40966 ft 509 kts 108°
2026-05-01 12:43 54.50615 53.65073 40957 ft 508 kts 108°
2026-05-01 12:43 54.48728 53.76803 40963 ft 508 kts 108°
2026-05-01 12:44 54.46838 53.88475 40956 ft 508 kts 108°
2026-05-01 12:45 54.43010 54.11862 40956 ft 508 kts 109°
2026-05-01 12:45 54.41078 54.23548 40930 ft 508 kts 109°
2026-05-01 12:46 54.39151 54.35132 40943 ft 508 kts 109°
2026-05-01 12:46 54.37186 54.46857 40944 ft 508 kts 109°
2026-05-01 12:47 54.35218 54.58498 40938 ft 508 kts 109°
2026-05-01 12:47 54.33242 54.70115 40937 ft 508 kts 109°
2026-05-01 12:48 54.31255 54.81733 40920 ft 508 kts 109°
2026-05-01 12:48 54.29269 54.93268 40930 ft 508 kts 110°
2026-05-01 12:49 54.27262 55.04853 40923 ft 508 kts 110°
2026-05-01 12:49 54.25242 55.16432 40925 ft 508 kts 110°
2026-05-01 12:50 54.23213 55.27995 40921 ft 508 kts 110°
2026-05-01 12:50 54.21173 55.39554 40918 ft 508 kts 110°
2026-05-01 12:51 54.19122 55.51081 40921 ft 507 kts 110°
2026-05-01 12:52 54.16007 55.68364 40908 ft 508 kts 110°
2026-05-01 12:52 54.12872 55.85619 40918 ft 507 kts 110°
2026-05-01 12:53 54.09721 56.02811 40901 ft 507 kts 111°
2026-05-01 12:54 54.07604 56.14272 40914 ft 507 kts 111°
2026-05-01 12:54 54.04411 56.31420 40925 ft 507 kts 111°
2026-05-01 12:55 54.01192 56.48558 40931 ft 508 kts 111°
2026-05-01 12:56 53.99042 56.59925 40898 ft 509 kts 111°
2026-05-01 12:56 53.96854 56.71426 40935 ft 508 kts 111°
2026-05-01 12:57 53.95040 56.82979 40945 ft 511 kts 107°
2026-05-01 12:57 53.92615 57.00586 40943 ft 511 kts 107°
2026-05-01 12:58 53.90949 57.12311 40939 ft 511 kts 107°
2026-05-01 12:59 53.88418 57.29854 40930 ft 511 kts 107°
2026-05-01 12:59 53.85873 57.47430 40935 ft 512 kts 108°
2026-05-01 13:00 53.83308 57.64985 40941 ft 512 kts 108°
2026-05-01 13:01 53.80680 57.82505 40935 ft 512 kts 108°
2026-05-01 13:02 53.78033 57.99991 40937 ft 512 kts 108°
2026-05-01 13:07 53.50906 59.22969 40919 ft 509 kts 116°
2026-05-01 13:08 53.48306 59.34020 40928 ft 508 kts 116°
2026-05-01 13:08 53.45713 59.44991 40924 ft 509 kts 116°
2026-05-01 13:09 53.43098 59.56011 40928 ft 509 kts 115°
2026-05-01 13:09 53.41260 59.67545 40928 ft 516 kts 103°
2026-05-01 13:10 53.40756 59.79603 40934 ft 522 kts 93°
2026-05-01 13:10 53.40822 59.91775 40933 ft 522 kts 93°
2026-05-01 13:11 53.40878 60.03947 40939 ft 522 kts 93°
2026-05-01 13:11 53.40870 60.16129 40937 ft 523 kts 94°
2026-05-01 13:12 53.40837 60.26248 40937 ft 523 kts 94°
2026-05-01 13:12 53.40785 60.38432 40939 ft 523 kts 94°
2026-05-01 13:13 53.40725 60.50602 40935 ft 522 kts 94°
2026-05-01 13:13 53.40654 60.62765 40935 ft 522 kts 94°
2026-05-01 13:14 53.40570 60.74930 40937 ft 522 kts 94°
2026-05-01 13:14 53.40474 60.87106 40937 ft 523 kts 95°
2026-05-01 13:15 53.40366 60.99289 40943 ft 523 kts 95°
2026-05-01 13:15 53.40247 61.11476 40934 ft 522 kts 95°
2026-05-01 13:16 53.39682 61.23545 40937 ft 517 kts 102°
2026-05-01 13:16 53.38674 61.35471 40924 ft 517 kts 102°
2026-05-01 13:17 53.36666 61.59240 40902 ft 517 kts 102°
2026-05-01 13:18 53.35177 61.77150 40904 ft 517 kts 102°
2026-05-01 13:18 53.34168 61.89070 40899 ft 518 kts 102°
2026-05-01 13:19 53.33145 62.00986 40899 ft 518 kts 102°
2026-05-01 13:20 53.31587 62.18858 40889 ft 517 kts 102°
2026-05-01 13:20 53.30535 62.30757 40856 ft 517 kts 103°
2026-05-01 13:21 53.28938 62.48586 40873 ft 517 kts 103°
2026-05-01 13:21 53.27858 62.60449 40858 ft 517 kts 103°
2026-05-01 13:22 53.26766 62.72313 40860 ft 517 kts 103°
2026-05-01 13:22 53.25664 62.84167 40845 ft 517 kts 103°
2026-05-01 13:23 53.24551 62.96024 40847 ft 517 kts 103°
2026-05-01 13:23 53.23426 63.07865 40832 ft 517 kts 103°
2026-05-01 13:24 53.22290 63.19706 40831 ft 516 kts 103°
2026-05-01 13:25 53.20563 63.37455 40843 ft 517 kts 103°
2026-05-01 13:25 53.19396 63.49306 40838 ft 518 kts 104°
2026-05-01 13:26 53.17771 63.60917 40815 ft 510 kts 114°
2026-05-01 13:26 53.15282 63.71855 40827 ft 507 kts 116°
2026-05-01 13:27 53.12735 63.82808 40828 ft 507 kts 116°
2026-05-01 13:27 53.08963 63.99261 40819 ft 507 kts 115°
2026-05-01 13:28 53.05196 64.15709 40823 ft 508 kts 116°
2026-05-01 13:29 53.00130 64.37605 40836 ft 507 kts 116°
2026-05-01 13:31 52.92489 64.70203 40846 ft 504 kts 116°
2026-05-01 13:32 52.86075 64.97187 40848 ft 505 kts 116°
2026-05-01 13:33 52.79584 65.24127 40854 ft 503 kts 117°
2026-05-01 13:34 52.74188 65.45424 40854 ft 502 kts 117°
2026-05-01 13:35 52.70266 65.61456 40842 ft 503 kts 117°
2026-05-01 13:36 52.66336 65.77474 40843 ft 502 kts 117°
2026-05-01 13:36 52.62370 65.93439 40859 ft 502 kts 117°
2026-05-01 13:37 52.59712 66.04074 40865 ft 502 kts 117°
2026-05-01 13:37 52.57045 66.14696 40844 ft 503 kts 117°
2026-05-01 13:38 52.53029 66.30598 40855 ft 502 kts 117°
2026-05-01 13:39 52.50338 66.41193 40853 ft 503 kts 118°
2026-05-01 13:39 52.47637 66.51774 40846 ft 503 kts 118°
2026-05-01 13:40 52.44942 66.62290 40846 ft 503 kts 118°
2026-05-01 13:40 52.42219 66.72864 40828 ft 504 kts 118°
2026-05-01 13:41 52.39451 66.83401 40831 ft 504 kts 119°
2026-05-01 13:41 52.36635 66.93903 40835 ft 504 kts 119°
2026-05-01 13:42 52.33812 67.04404 40828 ft 504 kts 119°
2026-05-01 13:42 52.30988 67.14898 40829 ft 505 kts 119°
2026-05-01 13:43 52.28154 67.25389 40826 ft 505 kts 119°
2026-05-01 13:43 52.25311 67.35862 40816 ft 505 kts 119°
2026-05-01 13:44 52.22455 67.46335 40825 ft 505 kts 119°
2026-05-01 13:44 52.19589 67.56803 40830 ft 506 kts 120°
2026-05-01 13:45 52.16701 67.67267 40820 ft 506 kts 120°
2026-05-01 13:45 52.13800 67.77721 40818 ft 506 kts 120°
2026-05-01 13:46 52.10896 67.88151 40803 ft 506 kts 120°
2026-05-01 13:46 52.07981 67.98575 40813 ft 507 kts 120°
2026-05-01 13:47 52.05055 68.08994 40818 ft 507 kts 120°
2026-05-01 13:47 52.02136 68.19345 40812 ft 508 kts 120°
2026-05-01 13:48 51.99185 68.29766 40816 ft 508 kts 120°
2026-05-01 13:48 51.96206 68.40158 40810 ft 508 kts 121°
2026-05-01 13:49 51.93080 68.50405 40814 ft 507 kts 122°
2026-05-01 13:49 51.89916 68.60591 40801 ft 506 kts 122°
2026-05-01 13:50 51.86765 68.70771 40812 ft 505 kts 122°
2026-05-01 13:50 51.83621 68.80938 40810 ft 505 kts 122°
2026-05-01 13:51 51.80474 68.91086 40810 ft 504 kts 122°
2026-05-01 13:51 51.77320 69.01210 40808 ft 505 kts 122°
2026-05-01 13:51 51.75734 69.06281 40678 ft 507 kts 122°
2026-05-01 13:52 51.74151 69.11324 40002 ft 513 kts 122°
2026-05-01 13:52 51.72544 69.16443 39394 ft 511 kts 122°
2026-05-01 13:52 51.70936 69.21559 38724 ft 511 kts 122°
2026-05-01 13:52 51.69329 69.26661 37948 ft 510 kts 123°
2026-05-01 13:53 51.67721 69.31757 37146 ft 509 kts 123°
2026-05-01 13:53 51.64526 69.41848 35651 ft 503 kts 123°
2026-05-01 13:53 51.62933 69.46861 34828 ft 503 kts 124°
2026-05-01 13:54 51.61338 69.51864 33960 ft 503 kts 124°
2026-05-01 13:54 51.59746 69.56851 32999 ft 499 kts 124°
2026-05-01 13:54 51.58191 69.61734 31936 ft 481 kts 124°
2026-05-01 13:54 51.56693 69.66435 30971 ft 464 kts 125°
2026-05-01 13:55 51.55241 69.70970 30186 ft 448 kts 125°
2026-05-01 13:55 51.53835 69.75340 29524 ft 436 kts 126°
2026-05-01 13:55 51.52432 69.79662 28809 ft 440 kts 125°
2026-05-01 13:55 51.50998 69.84068 28104 ft 451 kts 125°
2026-05-01 13:56 51.49535 69.88577 27381 ft 460 kts 124°
2026-05-01 13:56 51.48292 69.93365 26670 ft 469 kts 111°
2026-05-01 13:56 51.47814 69.98492 25991 ft 457 kts 102°
2026-05-01 13:56 51.47547 70.03470 25323 ft 441 kts 102°
2026-05-01 13:57 51.47273 70.08340 24699 ft 439 kts 102°
2026-05-01 13:57 51.47069 70.11605 24288 ft 449 kts 102°
2026-05-01 13:57 51.46606 70.18354 23426 ft 455 kts 103°
2026-05-01 13:57 51.46253 70.23305 22649 ft 437 kts 103°
2026-05-01 13:58 51.45911 70.28031 21980 ft 418 kts 103°
2026-05-01 13:58 51.45686 70.31066 21584 ft 411 kts 103°
2026-05-01 13:58 51.45337 70.35620 20973 ft 415 kts 103°
2026-05-01 13:58 51.44964 70.40323 20354 ft 435 kts 102°
2026-05-01 13:59 51.44580 70.45168 19682 ft 438 kts 102°
2026-05-01 13:59 51.44215 70.49933 19027 ft 421 kts 102°
2026-05-01 13:59 51.43870 70.54485 18420 ft 402 kts 102°
2026-05-01 13:59 51.43534 70.58874 17790 ft 394 kts 102°
2026-05-01 14:00 51.43190 70.63236 17158 ft 398 kts 102°
2026-05-01 14:00 51.42825 70.67750 16558 ft 416 kts 102°
2026-05-01 14:00 51.42454 70.72359 15925 ft 415 kts 102°
2026-05-01 14:00 51.42100 70.76864 15305 ft 398 kts 102°
2026-05-01 14:01 51.41763 70.81167 14700 ft 383 kts 102°
2026-05-01 14:01 51.41428 70.85353 14170 ft 378 kts 102°
2026-05-01 14:01 51.41082 70.89585 13627 ft 392 kts 102°
2026-05-01 14:01 51.40718 70.93989 12977 ft 401 kts 101°
2026-05-01 14:02 51.40364 70.98368 12355 ft 388 kts 101°
2026-05-01 14:02 51.40028 71.02547 11782 ft 370 kts 101°
2026-05-01 14:02 51.39703 71.06544 11506 ft 353 kts 102°
2026-05-01 14:02 51.39394 71.10316 11356 ft 330 kts 102°
2026-05-01 14:03 51.39102 71.13858 11185 ft 314 kts 102°
2026-05-01 14:03 51.38811 71.17322 10804 ft 317 kts 102°
2026-05-01 14:03 51.38506 71.20877 10439 ft 338 kts 102°
2026-05-01 14:03 51.38185 71.24644 10264 ft 339 kts 102°
2026-05-01 14:04 51.37882 71.28308 10060 ft 323 kts 102°
2026-05-01 14:04 51.37599 71.31754 9909 ft 302 kts 102°
2026-05-01 14:04 51.37332 71.34973 9746 ft 283 kts 102°
2026-05-01 14:04 51.37071 71.38048 9422 ft 276 kts 103°
2026-05-01 14:05 51.36810 71.41088 9147 ft 278 kts 103°
2026-05-01 14:05 51.36538 71.44222 8924 ft 288 kts 102°
2026-05-01 14:05 51.36267 71.47386 8546 ft 285 kts 102°
2026-05-01 14:05 51.36001 71.50497 8116 ft 279 kts 102°
2026-05-01 14:06 51.35574 71.53411 7792 ft 259 kts 124°
2026-05-01 14:06 51.34518 71.55544 7522 ft 235 kts 143°
2026-05-01 14:06 51.33348 71.57320 7144 ft 230 kts 143°
2026-05-01 14:06 51.32211 71.59088 6848 ft 222 kts 143°
2026-05-01 14:07 51.31109 71.60800 6880 ft 222 kts 143°
2026-05-01 14:07 51.30026 71.62477 6769 ft 212 kts 143°
2026-05-01 14:07 51.28986 71.64088 6527 ft 204 kts 143°
2026-05-01 14:08 51.26961 71.67287 6020 ft 205 kts 142°
2026-05-01 14:08 51.25958 71.68905 5766 ft 205 kts 142°
2026-05-01 14:08 51.24954 71.70519 5514 ft 206 kts 142°
2026-05-01 14:08 51.23921 71.72174 5428 ft 213 kts 142°
2026-05-01 14:09 51.22822 71.73703 5297 ft 204 kts 159°
2026-05-01 14:09 51.21503 71.74196 5214 ft 191 kts 186°
2026-05-01 14:09 51.20241 71.73847 5038 ft 181 kts 211°
2026-05-01 14:09 51.19248 71.72689 4899 ft 177 kts 219°
2026-05-01 14:10 51.18265 71.71476 4750 ft 179 kts 221°
2026-05-01 14:10 51.17343 71.70194 4576 ft 173 kts 224°
2026-05-01 14:10 51.16485 71.68902 4423 ft 167 kts 225°
2026-05-01 14:10 51.15675 71.67647 4275 ft 163 kts 225°
2026-05-01 14:11 51.14874 71.66396 4157 ft 160 kts 227°
2026-05-01 14:11 51.13287 71.63902 3821 ft 157 kts 228°
2026-05-01 14:11 51.12509 71.62678 3617 ft 157 kts 228°
2026-05-01 14:12 51.11730 71.61456 3420 ft 157 kts 228°
2026-05-01 14:12 51.10956 71.60241 3220 ft 156 kts 228°
2026-05-01 14:12 51.10209 71.59069 3012 ft 147 kts 227°
2026-05-01 14:12 51.09509 71.57975 2823 ft 135 kts 228°
2026-05-01 14:13 51.08874 71.56979 2662 ft 123 kts 229°
2026-05-01 14:13 51.08463 71.56333 2564 ft 123 kts 229°
2026-05-01 14:13 51.07687 71.55114 2352 ft 114 kts 228°
2026-05-01 14:13 51.07127 71.54237 2200 ft 113 kts 227°
2026-05-01 14:14 51.06556 71.53343 2057 ft 117 kts 228°
2026-05-01 14:14 51.05964 71.52413 1911 ft 123 kts 227°
2026-05-01 14:14 51.05348 71.51450 1739 ft 124 kts 226°
2026-05-01 14:14 51.04724 71.50475 1590 ft 128 kts 225°
2026-05-01 14:15 51.04087 71.49479 1410 ft 126 kts 225°
2026-05-01 14:15 51.03450 71.48485 1251 ft 131 kts 225°
2026-05-01 14:15 51.02821 71.47496 1168 ft 117 kts 225°
2026-05-01 14:15 51.02341 71.46759 1169 ft 75 kts 223°
2026-05-01 14:16 51.02011 71.46235 1166 ft 60 kts 225°
2026-05-01 14:16 51.01762 71.45842 1169 ft 35 kts 225°
2026-05-01 14:16 51.01696 71.45658 1168 ft 16 kts 303°
2026-05-01 14:16 51.01774 71.45528 1168 ft 16 kts 314°
2026-05-01 14:17 51.01870 71.45554 1165 ft 16 kts 45°
2026-05-01 14:17 51.01950 71.45680 1164 ft 16 kts 44°
2026-05-01 14:17 51.02031 71.45806 1164 ft 16 kts 44°
2026-05-01 14:17 51.02112 71.45932 1165 ft 16 kts 44°
2026-05-01 14:18 51.02192 71.46058 1164 ft 16 kts 44°
2026-05-01 14:18 51.02273 71.46183 1165 ft 16 kts 44°
2026-05-01 14:18 51.02354 71.46309 1167 ft 16 kts 44°
2026-05-01 14:18 51.02407 71.46392 1168 ft 16 kts 44°
2026-05-01 14:19 51.02515 71.46560 1168 ft 16 kts 44°
2026-05-01 14:19 51.02596 71.46686 1168 ft 16 kts 44°
2026-05-01 14:19 51.02676 71.46811 1165 ft 16 kts 44°
2026-05-01 14:19 51.02757 71.46937 1165 ft 16 kts 44°
2026-05-01 14:20 51.02838 71.47063 1166 ft 16 kts 45°
2026-05-01 14:20 51.02999 71.47315 1167 ft 16 kts 44°
2026-05-01 14:20 51.03079 71.47440 1164 ft 16 kts 44°
2026-05-01 14:21 51.03160 71.47566 1166 ft 16 kts 44°
2026-05-01 14:21 51.03248 71.47670 1165 ft 16 kts 358°
2026-05-01 14:21 51.03327 71.47564 1166 ft 11 kts 314°
2026-05-01 14:22 51.03431 71.47593 1164 ft 2 kts 45°
2026-05-01 14:22 51.03438 71.47604 1168 ft 1 kts 44°
2026-05-01 14:22 51.03440 71.47607 1168 ft 0 kts 44°
2026-05-01 14:22 51.03440 71.47608 1168 ft 0 kts 44°